[[{"header":{"parameterUnit":"m.s-1","parameterCategory":1,"la1":30.2991,"la2":30.254,"lo1":-89.0895,"lo2":-89.0444,"dy":0.0017,"dx":0.0017,"nx":28,"ny":28,"refTime":"2025-02-25T03:00:00:Z","depth":0,"parameterNumber":2,"parameterNumberName":"U-component_of_WINDS"},"data":[0,0,0,0,0,0,0,0,0,0,0,0,0,0,0,0,0,0,0,0,0,0,0,0,0,0,0,0,0,0,0,0,0,0,0,0,0,0,0,0,0,0,0,0,0,0,0,0,0,0,0,0,0,0,0,0,0,0,1.3324,1.3325,0,1.3463,1.3464,1.3466,1.3571,1.3572,1.3573,1.3574,1.3718,1.3721,1.3724,0,0,0,0,0,0,0,0,0,0,0,0,0,1.3154,1.3157,1.3323,1.3325,1.3327,1.3462,1.3464,1.3466,1.3571,1.3572,1.3573,1.3574,1.3717,1.3721,1.3724,0,0,0,0,0,0,0,0,0,0,0,0,0,1.3254,1.3158,1.3323,1.3395,1.3403,1.3462,1.3464,1.3467,1.357,1.3572,1.3573,1.3575,1.3716,1.372,1.3725,1.3723,0,0,1.3738,1.374,0,0,0,0,0,0,0,0,1.3248,1.326,1.3383,1.3391,1.3399,1.3501,1.3458,1.3553,1.357,1.3507,1.3574,1.3575,1.3645,1.3655,1.3678,1.373,1.3736,1.3739,1.3741,1.3743,1.3744,0,0,0,0,0,0,0,1.3241,1.3255,1.3379,1.3385,1.3395,1.3423,1.3438,1.3476,1.3566,1.3513,1.3521,1.3536,1.365,1.3674,1.3682,1.3738,1.3738,1.3742,1.3745,1.3747,1.3801,1.3799,0,0,0,0,0,0,1.3222,1.3248,1.3374,1.3383,1.3326,1.3425,1.3442,1.3467,1.3566,1.3583,1.3534,1.354,1.3665,1.3677,1.3688,1.3695,1.3743,1.3747,1.375,1.3802,1.38,1.3799,0,0,0,0,0,0,1.3218,1.3232,1.3369,1.3318,1.3337,1.3426,1.3453,1.3469,1.3493,1.3582,1.3599,1.3542,1.3667,1.3682,1.3714,1.3701,1.3749,1.3753,1.3803,1.3801,1.38,1.3707,0,0,0,0,0,0,1.3213,1.323,1.3229,1.3317,1.3339,1.3391,1.3452,1.3471,1.35,1.3509,1.3594,1.3609,1.3669,1.3707,1.3719,1.3708,1.3757,1.3805,1.3802,1.38,1.3712,1.3702,1.3694,0,0,0,0,0,1.3206,1.3197,1.3228,1.3243,1.3339,1.339,1.3403,1.3471,1.3498,1.3499,1.3557,1.3607,1.3701,1.371,1.3724,1.3714,1.3806,1.3803,1.38,1.3715,1.3704,1.3694,0,0,0,0,0,0,1.3105,1.321,1.3246,1.3264,1.3317,1.3407,1.341,1.3456,1.3503,1.3509,1.3593,1.3612,1.3636,1.3679,1.3687,1.372,1.376,1.376,1.3691,1.3681,1.3672,1.3661,1.376,0,0,0,0,0,1.3085,1.3116,1.3206,1.3214,1.3239,1.332,1.3344,1.3392,1.3451,1.3474,1.3535,1.3591,1.3634,1.366,1.3704,1.3719,1.3741,1.372,1.3711,1.3704,1.3702,1.3717,1.3709,1.379,1.379,1.379,0,0,1.3043,1.3105,1.3119,1.3195,1.3242,1.3274,1.3338,1.3368,1.3393,1.3479,1.3514,1.3561,1.3629,1.3654,1.3668,1.369,1.3685,1.37,1.3693,1.3696,1.3713,1.3705,1.3698,1.3788,1.3788,1.3789,0,0,1.2984,1.3033,1.3046,1.3092,1.3163,1.3217,1.322,1.3305,1.3339,1.3375,1.3442,1.3474,1.3545,1.3592,1.3625,1.3588,1.3636,1.3601,1.3554,1.3567,1.3561,1.3556,1.3544,1.3539,1.3599,1.3599,1.3599,0,1.2924,1.2973,1.3047,1.3074,1.3107,1.3187,1.3202,1.3244,1.3325,1.3347,1.3371,1.3465,1.3516,1.3555,1.3546,1.357,1.3578,1.359,1.3556,1.3551,1.3548,1.3537,1.3533,1.3594,1.3595,1.3595,1.3596,0,1.2896,1.293,1.2932,1.3009,1.3043,1.3063,1.3142,1.3168,1.3215,1.3267,1.3306,1.3371,1.3431,1.3444,1.349,1.349,1.3502,1.354,1.3581,1.3534,1.3526,1.3522,1.3587,1.3589,1.359,1.3592,0,0,1.2773,1.2894,1.2893,1.293,1.3016,1.3044,1.3071,1.313,1.3151,1.3206,1.3231,1.3292,1.3328,1.3366,1.3418,1.343,1.3399,1.3467,1.347,1.3453,1.3406,1.3376,1.3371,1.3432,1.3432,1.3431,1.3401,0,1.2728,1.2777,1.2847,1.2874,1.2908,1.2987,1.3011,1.3067,1.3118,1.3156,1.3213,1.3255,1.33,1.3323,1.3338,1.3399,1.3391,1.3403,1.3458,1.3459,1.3437,1.3366,1.3335,1.3302,1.3398,1.3397,1.3397,0,1.268,1.2731,1.2761,1.2848,1.2865,1.2884,1.2945,1.298,1.3047,1.3084,1.3128,1.3185,1.322,1.3258,1.3308,1.3315,1.3343,1.3376,1.3377,1.3384,1.3424,1.3372,1.3293,1.3288,1.3392,1.3393,1.3393,0,1.2588,1.2665,1.2694,1.2723,1.2824,1.2837,1.288,1.2948,1.2981,1.3035,1.3058,1.3115,1.3147,1.3192,1.3264,1.3285,1.3307,1.3351,1.334,1.3338,1.334,1.3339,1.3264,1.3358,1.3358,1.3358,1.3358,0,1.2529,1.2545,1.2654,1.2672,1.2694,1.2775,1.2795,1.2845,1.2907,1.2937,1.3011,1.3038,1.3132,1.3172,1.323,1.3264,1.3277,1.331,1.3324,1.3303,1.3298,1.3321,1.3325,1.3357,1.3357,1.3357,1.3358,0,1.2429,1.2503,1.254,1.2634,1.2658,1.267,1.2751,1.2773,1.283,1.2868,1.2882,1.2972,1.3023,1.31,1.3174,1.3213,1.3238,1.3263,1.3215,1.3224,1.3209,1.3209,1.3146,1.3143,1.3237,1.3236,1.3235,0,1.2386,1.24,1.2496,1.2522,1.2563,1.2603,1.2637,1.2719,1.2752,1.2832,1.2844,1.2901,1.2951,1.3029,1.3102,1.316,1.3186,1.3161,1.3195,1.3174,1.3187,1.3185,1.3188,1.3151,1.315,1.3149,1.3148,0,1.2302,1.2339,1.2384,1.2443,1.2482,1.2532,1.2586,1.2604,1.2699,1.2732,1.2785,1.2823,1.29,1.2956,1.3025,1.3072,1.3126,1.3137,1.3138,1.3115,1.3087,1.3103,1.3192,1.3137,1.3138,1.3139,1.314,1.314,1.223,1.2248,1.2319,1.2368,1.2418,1.2468,1.2493,1.2555,1.26,1.2668,1.2715,1.2766,1.2838,1.2935,1.298,1.3023,1.3045,1.3046,1.3046,1.3045,1.3038,1.3081,1.3035,1.3036,1.3036,1.3037,1.3037,0,1.2151,1.2201,1.2246,1.232,1.2359,1.2408,1.2472,1.2502,1.2545,1.2607,1.2655,1.2718,1.2774,1.2852,1.2915,1.2934,1.296,1.2947,1.2946,1.2957,1.3013,1.3006,1.2925,1.2925,1.2925,1.2925,1.2925,1.2925,1.2114,1.2147,1.2193,1.2253,1.2304,1.2354,1.2386,1.2434,1.2484,1.255,1.2597,1.2648,1.2718,1.2787,1.2841,1.2864,1.2883,1.2862,1.2892,1.2942,1.2953,1.2962,1.2957,1.2866,1.2866,1.2833,1.2832,1.2832]},{"header":{"parameterUnit":"m.s-1","parameterCategory":1,"la1":30.2991,"la2":30.254,"lo1":-89.0895,"lo2":-89.0444,"dy":0.0017,"dx":0.0017,"nx":28,"ny":28,"refTime":"2025-02-25T03:00:00:Z","depth":0,"parameterNumber":3,"parameterNumberName":"V-component_of_WINDS"},"data":[0,0,0,0,0,0,0,0,0,0,0,0,0,0,0,0,0,0,0,0,0,0,0,0,0,0,0,0,0,0,0,0,0,0,0,0,0,0,0,0,0,0,0,0,0,0,0,0,0,0,0,0,0,0,0,0,0,0,-0.9935,-0.9935,0,-0.9979,-0.998,-0.998,-1.0031,-1.0031,-1.0032,-1.0033,-1.0072,-1.0072,-1.0072,0,0,0,0,0,0,0,0,0,0,0,0,0,-0.989,-0.9891,-0.9935,-0.9936,-0.9936,-0.9979,-0.998,-0.9981,-1.003,-1.0031,-1.0032,-1.0033,-1.0071,-1.0072,-1.0072,0,0,0,0,0,0,0,0,0,0,0,0,0,-0.9919,-0.9891,-0.9935,-0.9966,-0.997,-0.9979,-0.998,-0.9981,-1.003,-1.0031,-1.0032,-1.0034,-1.0071,-1.0072,-1.0072,-1.0052,0,0,-1.0074,-1.0074,0,0,0,0,0,0,0,0,-0.9918,-0.9921,-0.9961,-0.9964,-0.9968,-1.0001,-0.9978,-1.0004,-1.003,-1.0007,-1.0033,-1.0034,-1.0047,-1.0049,-1.0055,-1.0054,-1.0056,-1.0074,-1.0074,-1.0074,-1.0074,0,0,0,0,0,0,0,-0.9916,-0.9919,-0.9952,-0.9962,-0.9966,-0.9977,-0.9983,-0.9984,-1.002,-1.0009,-1.0013,-1.0018,-1.0049,-1.0054,-1.0056,-1.0056,-1.0074,-1.0074,-1.0075,-1.0075,-1.0046,-1.0045,0,0,0,0,0,0,-0.9909,-0.9917,-0.9951,-0.9954,-0.9945,-0.9977,-0.9983,-0.9989,-1.002,-1.0026,-1.0017,-1.002,-1.0053,-1.0055,-1.0058,-1.0039,-1.0074,-1.0075,-1.0075,-1.0047,-1.0046,-1.0044,0,0,0,0,0,0,-0.9908,-0.9912,-0.9949,-0.9937,-0.9942,-0.9977,-0.9983,-0.9989,-0.9995,-1.0026,-1.0032,-1.0016,-1.0054,-1.0057,-1.0055,-1.0041,-1.0075,-1.0075,-1.0048,-1.0047,-1.0045,-1.0,0,0,0,0,0,0,-0.9907,-0.9911,-0.9904,-0.9936,-0.9943,-0.9946,-0.9982,-0.9989,-0.9996,-1.0001,-1.0027,-1.0032,-1.0055,-1.0054,-1.0055,-1.0043,-1.0076,-1.0049,-1.0047,-1.0046,-1.0003,-0.9998,-0.9993,0,0,0,0,0,-0.9905,-0.9888,-0.9904,-0.9908,-0.9935,-0.9945,-0.9949,-0.9978,-0.9995,-0.9989,-1.0009,-1.0031,-1.0043,-1.0053,-1.0055,-1.0042,-1.005,-1.0048,-1.0046,-1.0006,-0.9999,-0.9993,0,0,0,0,0,0,-0.985,-0.9892,-0.9911,-0.9903,-0.9921,-0.9954,-0.9946,-0.9969,-0.998,-0.9983,-1.0016,-1.0022,-1.0016,-1.0029,-1.004,-1.0027,-1.005,-1.0048,-1.0019,-1.0012,-1.0007,-1.0004,-1.0076,0,0,0,0,0,-0.9838,-0.9844,-0.988,-0.987,-0.9878,-0.9911,-0.9916,-0.9937,-0.9956,-0.9962,-0.9983,-0.9998,-1.0006,-1.001,-1.0018,-1.0006,-1.0013,-0.9998,-0.9993,-0.9988,-0.9986,-0.9984,-0.9978,-1.0037,-1.0037,-1.0037,0,0,-0.9811,-0.9835,-0.9836,-0.986,-0.9876,-0.9881,-0.9916,-0.9919,-0.9924,-0.9962,-0.9963,-0.9978,-0.9998,-0.9992,-0.999,-1.0002,-0.9972,-0.9985,-0.9981,-0.9982,-0.9981,-0.9975,-0.997,-1.0035,-1.0035,-1.0036,0,0,-0.9765,-0.9783,-0.9779,-0.9796,-0.9821,-0.9844,-0.9843,-0.9874,-0.9887,-0.9888,-0.9919,-0.9923,-0.9935,-0.9949,-0.9957,-0.9922,-0.9944,-0.9924,-0.9896,-0.9893,-0.9889,-0.9885,-0.9874,-0.987,-0.9921,-0.9921,-0.9921,0,-0.9728,-0.9739,-0.9773,-0.9777,-0.9787,-0.9826,-0.9822,-0.9836,-0.9861,-0.9867,-0.9881,-0.99,-0.9915,-0.9914,-0.9906,-0.9911,-0.9912,-0.9921,-0.9887,-0.9883,-0.988,-0.987,-0.9866,-0.9919,-0.9919,-0.9919,-0.992,0,-0.9694,-0.9701,-0.9694,-0.9722,-0.9732,-0.9731,-0.9765,-0.977,-0.9791,-0.9812,-0.9815,-0.9836,-0.9851,-0.9852,-0.9871,-0.9855,-0.9862,-0.9881,-0.9905,-0.9872,-0.9863,-0.986,-0.9915,-0.9916,-0.9917,-0.9918,0,0,-0.9612,-0.9663,-0.966,-0.9675,-0.9708,-0.9714,-0.9715,-0.9733,-0.9738,-0.9755,-0.9758,-0.9769,-0.9788,-0.9798,-0.9819,-0.9816,-0.9791,-0.9836,-0.9837,-0.9829,-0.9777,-0.9764,-0.9759,-0.9806,-0.9805,-0.9804,-0.9776,0,-0.9573,-0.9582,-0.9615,-0.9613,-0.9621,-0.966,-0.9662,-0.9682,-0.9703,-0.9712,-0.9734,-0.9743,-0.9766,-0.9773,-0.9772,-0.9794,-0.9781,-0.9796,-0.9808,-0.9809,-0.9804,-0.9754,-0.9739,-0.9711,-0.9773,-0.9772,-0.9772,0,-0.9529,-0.9548,-0.9548,-0.9585,-0.959,-0.9591,-0.9612,-0.962,-0.9645,-0.966,-0.9673,-0.9699,-0.9703,-0.9726,-0.9733,-0.9743,-0.975,-0.9762,-0.9761,-0.9764,-0.9788,-0.9757,-0.9703,-0.9699,-0.9767,-0.9767,-0.9767,0,-0.9472,-0.9497,-0.9502,-0.9513,-0.9555,-0.9556,-0.9573,-0.9599,-0.9609,-0.9627,-0.9634,-0.9651,-0.966,-0.9672,-0.9702,-0.9715,-0.9706,-0.973,-0.9719,-0.9718,-0.9715,-0.9715,-0.9663,-0.9718,-0.9718,-0.9718,-0.9718,0,-0.9426,-0.9425,-0.9478,-0.948,-0.9481,-0.9519,-0.9518,-0.9539,-0.9562,-0.957,-0.9603,-0.9609,-0.9647,-0.9657,-0.968,-0.9684,-0.9687,-0.9699,-0.9705,-0.9697,-0.9696,-0.9702,-0.9705,-0.9717,-0.9717,-0.9717,-0.9717,0,-0.9363,-0.9398,-0.9406,-0.9447,-0.9458,-0.9456,-0.9491,-0.9495,-0.952,-0.9529,-0.9533,-0.957,-0.9584,-0.9615,-0.9636,-0.9651,-0.965,-0.966,-0.9643,-0.9647,-0.9634,-0.9636,-0.9585,-0.9582,-0.9637,-0.9637,-0.9636,0,-0.9331,-0.9332,-0.9375,-0.9385,-0.9402,-0.9415,-0.9427,-0.9465,-0.9475,-0.9506,-0.9507,-0.9524,-0.954,-0.9561,-0.9589,-0.9606,-0.9618,-0.9599,-0.962,-0.9613,-0.962,-0.962,-0.9621,-0.9594,-0.9593,-0.9593,-0.9592,0,-0.9273,-0.9292,-0.9309,-0.9333,-0.9348,-0.9367,-0.9389,-0.9394,-0.9437,-0.9447,-0.9464,-0.9477,-0.9502,-0.9519,-0.9541,-0.9558,-0.9582,-0.9586,-0.9585,-0.9576,-0.9567,-0.9574,-0.9631,-0.9587,-0.9587,-0.9588,-0.9588,-0.9588,-0.9226,-0.923,-0.9263,-0.9281,-0.9303,-0.9324,-0.9331,-0.9358,-0.9374,-0.9399,-0.942,-0.9436,-0.9463,-0.9496,-0.9511,-0.9524,-0.9535,-0.9533,-0.9532,-0.9531,-0.9529,-0.9565,-0.9527,-0.9528,-0.9528,-0.9528,-0.9528,0,-0.9171,-0.9195,-0.9212,-0.9244,-0.9259,-0.9285,-0.9311,-0.9322,-0.9336,-0.9361,-0.9378,-0.9399,-0.9417,-0.9448,-0.9468,-0.9472,-0.9484,-0.9477,-0.9477,-0.9481,-0.9516,-0.9516,-0.9467,-0.9467,-0.9467,-0.9467,-0.9467,-0.9467,-0.9144,-0.9154,-0.9177,-0.9198,-0.9222,-0.924,-0.9253,-0.9273,-0.9294,-0.9316,-0.9333,-0.9355,-0.9382,-0.9406,-0.9424,-0.9433,-0.9439,-0.9428,-0.944,-0.9472,-0.9478,-0.9483,-0.9484,-0.9429,-0.9429,-0.9405,-0.9405,-0.9404]}]]